Wind_Speed
36 36 36 36 36 37 38 39 40 42 43 43 43 43 43 44 45 46 46 47 48 49 49 49 50 50 51 53 55 56 57 57 58 60 61 61 62 62 62 62 63 62 60 59 60 61 61 60 58 53 44 35 32 35 35 36 39 43 49 57 65 73 78 80 81 81 82 83 86 90 91 88 85 84 82 81 81 83 86 85 85 85 83 80 77 80 75 64
35 35 35 35 36 37 38 39 40 41 41 42 43 43 44 44 45 45 45 46 47 49 49 48 50 50 51 53 54 56 57 58 58 59 61 62 62 62 62 63 63 63 62 60 60 61 61 60 60 57 51 42 35 32 33 35 37 40 44 51 60 70 76 81 83 83 84 84 87 90 90 87 84 83 80 79 79 80 83 83 83 83 83 81 79 80 80 69
34 34 35 35 36 37 38 39 39 40 41 42 43 44 44 44 44 44 44 44 46 48 49 48 50 51 51 52 54 55 57 58 58 59 60 62 63 62 63 63 63 64 63 61 60 61 62 61 60 58 53 48 41 34 32 34 36 38 40 45 55 65 73 80 83 85 85 85 86 88 89 86 83 83 80 77 77 77 80 82 81 81 81 81 79 80 83 74
34 34 34 35 36 37 38 38 39 40 41 42 43 44 44 44 44 44 43 43 45 47 47 47 49 51 52 52 53 54 56 58 58 59 60 63 64 63 63 64 63 64 64 63 61 60 61 61 60 58 54 49 45 40 34 32 35 36 37 42 52 60 68 76 82 85 86 86 86 87 89 86 83 83 79 75 74 75 78 82 82 81 79 80 79 81 83 74
35 35 35 35 36 37 38 38 39 40 41 42 43 44 43 42 43 43 42 42 44 45 46 46 47 50 52 53 53 54 55 56 58 59 60 62 65 64 64 65 65 65 64 64 63 61 61 62 61 59 54 49 45 42 37 32 31 33 36 42 49 55 62 71 79 83 86 86 86 87 88 86 84 81 77 74 71 73 78 82 82 81 79 78 79 81 81 72
36 37 37 37 37 38 38 39 40 41 42 43 43 42 41 41 42 41 41 42 43 44 45 47 48 49 51 52 53 54 54 55 57 59 60 62 65 65 65 66 66 66 66 66 65 63 62 62 62 60 55 49 44 41 38 32 28 31 36 41 46 52 57 66 74 80 84 85 86 86 87 87 84 78 76 73 70 74 79 82 82 81 79 78 79 79 78 70
36 37 38 38 39 39 39 40 41 41 42 42 42 41 40 41 41 40 41 41 42 43 44 46 48 49 50 52 53 54 55 55 56 58 59 60 63 65 65 66 66 67 66 66 67 65 63 62 62 59 55 49 45 41 37 32 27 28 35 40 44 50 54 60 67 74 80 84 86 86 86 86 83 79 77 72 71 75 80 82 83 81 79 78 79 78 75 68
36 36 37 38 38 39 40 40 41 42 42 42 42 41 40 40 41 40 41 41 41 42 43 45 48 50 50 52 53 54 56 57 57 58 58 59 61 64 65 66 66 66 67 67 67 67 64 63 63 61 56 51 46 42 37 32 27 26 33 37 41 45 51 57 61 67 75 81 86 86 85 86 85 81 76 72 73 77 81 83 82 81 79 78 78 78 75 67
38 38 37 38 38 39 40 41 41 42 43 43 42 41 40 41 42 42 42 42 42 43 44 45 47 49 50 52 53 54 56 58 58 58 58 59 60 62 64 66 66 66 67 67 67 68 66 64 64 63 58 52 47 44 38 32 27 25 30 34 37 42 47 53 57 62 68 76 83 84 85 86 86 81 73 72 75 79 82 82 80 80 79 77 76 78 74 66
40 40 40 39 39 40 40 41 41 42 43 43 43 42 41 42 43 43 43 43 44 44 45 45 47 49 50 51 53 54 56 58 59 59 59 59 60 61 63 65 66 66 67 68 68 68 68 65 64 63 60 54 48 44 40 33 27 25 27 30 34 39 43 48 52 58 62 68 76 81 83 86 86 78 71 73 78 81 82 80 79 80 80 78 75 77 74 62
43 43 42 42 42 42 42 42 42 42 43 44 44 44 43 43 43 44 45 45 46 46 46 46 48 50 50 51 52 53 54 56 59 59 60 60 60 60 61 65 66 66 66 67 68 68 68 67 64 63 60 56 49 43 40 35 27 24 24 28 33 35 38 43 49 54 57 61 68 75 81 84 84 77 72 78 82 81 78 78 80 79 79 78 75 76 72 59
45 45 45 44 44 44 44 43 43 43 43 44 45 45 44 44 44 45 45 46 47 48 48 48 48 50 51 51 52 53 54 55 58 60 60 60 61 60 61 63 66 67 66 67 68 68 68 67 65 63 61 57 53 46 41 36 29 23 22 26 30 31 35 40 44 49 52 56 61 68 75 80 83 79 78 83 81 75 74 77 78 75 77 78 75 76 71 58
47 47 47 47 47 46 46 45 45 45 45 44 45 45 46 45 45 46 46 47 48 49 50 49 49 50 51 52 52 53 54 55 56 58 60 60 61 61 60 62 65 66 67 66 67 68 68 68 66 63 61 58 54 49 44 38 30 24 21 23 26 27 32 35 38 43 47 52 55 59 67 76 82 82 83 83 75 70 71 75 75 73 76 77 75 75 71 62
47 47 47 48 48 48 48 47 47 47 47 46 46 46 46 47 46 47 47 48 49 49 51 51 51 51 52 52 53 53 54 55 55 56 58 59 61 61 60 61 63 65 66 66 66 67 68 69 67 64 62 59 55 51 47 41 33 25 20 19 19 22 26 28 31 37 43 47 50 52 59 69 79 83 85 80 71 67 69 71 72 72 75 76 75 74 71 65
49 48 48 48 49 49 50 49 49 48 48 48 48 47 47 48 48 48 49 49 49 49 51 52 52 52 53 53 53 53 54 55 56 55 57 58 60 61 61 61 62 64 65 66 66 66 67 68 68 66 62 60 56 51 49 44 36 28 22 16 14 16 19 23 27 33 38 42 45 48 52 62 74 80 81 75 69 66 66 68 71 71 73 75 74 74 70 67
51 50 51 51 51 51 51 50 50 49 49 49 50 50 49 50 49 50 50 50 50 50 51 53 53 53 53 53 54 54 54 55 56 55 55 57 58 60 61 61 61 63 64 65 65 64 65 66 68 67 63 60 57 53 50 46 39 32 25 19 14 13 15 20 24 30 34 37 41 43 47 57 68 74 74 71 67 63 63 66 69 70 73 73 73 73 71 67
52 52 52 53 53 52 51 50 50 50 50 50 50 51 52 52 52 52 52 51 51 51 51 53 53 53 53 54 54 54 53 54 55 55 55 56 57 59 59 60 60 61 63 64 64 63 64 65 67 67 64 61 58 54 52 49 42 34 28 22 17 13 14 18 22 26 30 33 36 39 44 53 61 64 66 67 63 60 61 64 68 71 72 72 72 72 69 67
56 55 55 55 54 53 52 51 50 50 50 50 51 51 52 53 54 54 53 53 53 51 52 53 54 53 53 54 54 54 53 53 54 54 54 55 56 58 58 59 59 60 61 63 64 62 62 64 65 67 65 62 59 56 54 51 44 36 30 24 18 13 12 15 18 22 25 27 31 35 40 48 53 54 58 62 61 60 61 64 67 70 71 71 71 69 67 66
61 60 60 59 57 55 54 53 52 51 51 51 51 51 52 54 55 55 55 54 54 52 52 53 55 54 54 54 54 54 54 53 53 54 54 54 55 57 57 58 58 59 60 62 63 62 61 62 62 64 65 63 60 57 55 52 46 38 32 26 19 13 9 10 12 16 19 22 27 31 35 43 47 47 52 58 59 59 61 63 67 69 71 71 69 66 64 63
64 64 65 65 63 60 57 56 55 54 52 52 52 53 53 54 54 55 55 55 55 53 52 53 56 56 55 55 55 55 55 53 52 53 53 54 54 55 56 57 57 59 58 60 62 61 59 60 60 61 63 63 60 57 55 53 48 41 34 28 22 16 10 7 7 10 14 18 21 24 28 38 43 42 47 54 56 59 61 63 66 68 70 69 66 65 62 62
67 67 68 68 68 64 61 59 58 57 55 53 53 53 54 55 54 54 55 57 57 55 53 53 56 58 57 56 55 55 55 54 53 53 53 54 54 54 55 56 56 57 57 58 59 60 59 59 59 58 59 61 60 57 55 53 49 43 36 30 25 20 14 9 5 6 9 13 15 17 24 34 38 36 42 50 54 58 61 62 66 68 69 67 66 65 63 60
68 68 69 70 70 67 64 63 62 60 59 56 55 54 54 55 55 55 55 57 58 56 55 55 57 59 58 56 55 55 55 54 54 53 53 53 54 53 54 54 54 55 56 56 57 58 58 58 58 56 56 57 58 57 54 52 49 44 38 32 27 22 18 12 7 4 5 9 11 15 22 30 32 32 38 46 52 57 60 61 65 66 67 67 66 67 64 58
71 71 71 71 71 69 67 65 65 64 62 60 58 56 56 56 55 55 55 57 59 59 57 57 57 58 57 56 56 55 55 55 55 54 53 53 54 54 53 53 53 53 54 54 55 57 57 57 57 55 53 53 54 55 53 50 48 43 38 34 29 25 21 16 11 7 3 4 7 13 20 24 25 28 35 43 50 55 58 59 63 65 66 66 67 66 62 56
73 73 73 73 73 71 69 68 68 67 65 63 61 60 58 57 56 56 55 56 60 62 58 57 58 58 58 57 56 56 56 56 56 55 54 53 54 54 53 52 52 51 52 53 52 53 56 56 55 53 51 50 50 52 52 49 46 42 37 33 30 27 23 19 15 10 6 3 3 8 13 15 18 25 33 41 48 52 55 56 59 63 65 66 65 64 61 56
75 75 75 75 75 73 71 71 71 70 68 65 63 63 61 60 58 57 56 54 58 63 61 58 59 59 59 58 57 56 56 56 57 56 55 54 54 54 53 52 52 51 50 51 50 49 52 54 53 52 50 48 47 48 49 48 45 42 37 32 29 27 24 20 17 14 10 6 2 2 5 8 14 23 31 38 45 48 50 52 56 60 64 65 63 62 60 56
77 76 76 76 76 76 75 74 74 73 71 69 66 65 63 62 60 59 58 55 56 63 64 61 60 60 59 59 58 57 57 57 57 57 55 54 54 54 54 52 51 51 50 50 50 48 48 51 52 50 49 47 44 43 44 45 44 42 37 32 29 27 24 21 18 16 13 9 6 3 1 6 13 21 28 34 40 43 45 48 52 57 61 64 63 62 60 56
79 79 78 78 78 78 78 77 77 75 74 72 69 67 65 64 62 61 60 56 55 61 65 64 63 62 60 59 59 58 58 58 58 58 56 55 54 55 54 53 52 51 50 49 50 49 46 47 49 49 48 46 43 40 40 40 40 39 36 31 29 28 25 21 19 18 15 12 8 5 4 6 11 16 22 29 34 37 40 43 48 55 60 63 64 62 59 55
81 81 81 81 82 82 81 81 80 78 76 74 71 69 66 65 64 63 61 58 56 61 65 66 65 64 62 61 60 59 59 59 59 58 57 54 54 55 54 54 53 51 50 49 49 50 48 45 45 47 47 45 43 40 38 37 36 37 35 31 27 27 28 24 18 17 16 13 9 5 4 5 9 13 18 24 28 32 36 39 45 52 57 60 63 62 60 56
83 83 84 85 86 85 84 84 83 80 78 76 73 71 69 68 66 64 63 60 58 62 65 67 67 65 64 63 61 60 59 59 60 59 57 55 54 55 54 54 54 52 51 49 47 48 49 46 44 44 44 44 42 39 36 34 33 33 33 31 25 22 26 25 18 17 17 11 8 6 4 5 8 12 16 20 24 27 31 35 40 45 50 55 58 60 60 58
86 87 88 88 88 88 87 86 85 82 79 78 75 73 71 69 68 67 65 62 61 63 66 69 69 66 65 63 62 61 61 60 61 60 57 55 55 54 54 54 53 53 52 49 47 46 47 47 44 43 43 42 41 38 35 32 30 28 28 28 25 18 17 20 18 16 16 10 7 7 7 7 9 12 15 18 20 23 27 31 35 40 44 49 53 56 58 58
90 91 91 91 91 90 88 87 85 83 82 80 77 75 73 71 70 69 67 64 65 66 67 70 69 67 66 64 63 63 63 62 61 60 58 57 55 54 53 53 53 52 52 51 48 45 45 46 45 43 42 41 40 38 35 32 28 26 23 23 24 18 11 11 13 13 11 8 7 6 9 10 10 11 13 15 17 21 25 29 33 37 42 45 49 51 53 56
94 95 94 93 93 92 90 88 86 85 83 81 79 77 75 74 72 70 68 67 69 68 69 71 71 69 68 67 66 65 64 64 62 61 59 58 56 55 54 53 52 52 52 51 49 47 45 44 44 43 41 40 39 38 36 33 28 25 23 20 19 19 15 10 9 9 5 4 5 1 9 12 10 10 12 13 15 18 22 26 30 33 38 41 44 47 49 50
97 97 96 95 94 94 92 90 87 86 85 84 82 80 79 78 74 70 69 71 72 71 72 74 73 73 72 69 68 66 66 65 63 61 60 59 57 56 55 54 52 52 51 50 49 48 46 45 43 42 41 40 37 36 37 35 31 27 24 20 17 16 17 14 11 10 7 3 3 3 5 11 12 13 15 16 17 18 21 25 28 29 32 35 38 41 44 46
99 99 97 96 95 95 94 92 90 88 87 87 86 84 83 80 75 72 73 74 75 75 76 76 76 75 73 71 70 69 67 66 64 63 61 59 59 58 57 56 54 53 51 50 49 47 47 46 44 41 41 40 37 35 36 36 33 29 24 22 19 16 16 16 14 14 12 8 9 8 8 9 12 14 17 18 17 18 21 25 28 29 30 31 34 38 41 44
101 100 99 97 97 97 96 94 93 92 91 90 90 90 86 80 77 76 76 77 79 80 80 79 78 76 74 73 72 71 69 68 66 65 62 61 60 59 59 57 56 54 52 50 49 47 47 47 45 41 40 41 38 35 35 35 33 30 26 23 21 19 19 19 17 16 16 15 14 13 13 12 12 15 18 21 21 22 24 26 29 31 33 34 37 39 41 44
103 102 101 99 99 99 99 98 97 96 95 94 95 93 87 82 82 81 80 81 82 82 81 80 79 78 77 75 74 73 72 70 68 66 63 62 60 59 60 60 58 57 54 51 49 48 49 49 47 43 41 41 39 36 35 35 33 31 30 28 25 22 21 21 21 20 19 20 19 18 18 17 16 17 20 23 26 28 29 30 32 35 38 41 42 42 43 44
107 105 104 102 102 103 103 101 101 100 99 99 99 94 89 87 88 86 84 84 83 83 83 82 81 80 79 78 77 76 74 72 69 67 64 63 60 59 62 62 59 59 57 53 49 49 49 49 49 46 43 42 40 37 36 36 32 30 31 32 29 26 22 21 23 24 24 24 24 24 23 22 21 21 22 23 26 30 33 36 38 39 42 44 45 46 46 47
112 110 108 106 106 107 107 106 105 104 103 103 100 95 93 92 91 89 88 86 85 86 86 84 83 82 81 80 78 77 75 72 70 68 66 63 61 60 63 63 62 61 59 55 51 50 49 48 49 48 46 43 40 38 38 34 30 31 33 33 31 29 27 23 22 24 26 27 29 29 29 28 27 26 26 27 29 33 37 40 42 43 44 45 46 47 48 49
116 114 112 109 109 111 111 110 110 109 108 106 100 97 96 94 92 92 92 90 89 89 88 86 85 84 82 81 79 78 77 74 72 70 68 65 63 63 65 65 64 63 61 57 54 52 50 48 49 50 48 44 41 41 40 34 31 33 34 33 32 31 30 27 23 23 25 27 30 33 34 35 33 30 31 33 35 37 39 41 42 44 45 46 47 49 50 51
120 118 115 113 112 114 115 114 114 113 111 107 102 100 98 96 95 95 93 92 91 90 88 87 86 85 83 82 81 80 78 76 74 72 70 69 67 67 68 67 66 65 63 60 57 54 52 50 49 50 50 47 44 43 40 34 32 34 34 34 33 31 30 28 26 24 23 24 27 31 36 39 37 36 38 39 40 40 41 43 44 45 46 48 49 51 52 54
125 123 120 118 118 118 118 117 116 115 112 109 104 102 100 99 97 95 93 92 92 91 90 89 89 89 87 86 84 82 81 79 77 76 74 72 70 69 70 69 68 67 64 62 60 57 55 52 50 50 50 50 48 45 42 38 35 34 35 36 35 32 29 26 26 27 26 25 26 29 36 41 38 39 43 44 44 44 45 46 47 47 48 49 50 52 53 55
128 126 123 122 123 123 122 120 118 117 113 109 105 104 103 101 99 97 96 95 94 94 93 91 91 91 89 88 86 85 84 83 81 79 77 75 73 72 71 71 70 68 66 65 64 62 59 55 51 50 51 51 49 46 45 42 39 37 38 40 38 32 28 27 27 29 28 27 28 29 36 41 38 38 43 45 47 48 49 50 50 51 52 52 52 53 53 54
131 129 126 125 126 126 125 123 121 119 114 109 106 106 105 103 101 100 99 98 97 97 96 94 93 93 92 91 90 89 88 86 83 81 79 77 74 73 73 72 71 70 69 68 67 66 64 58 54 52 51 51 49 48 47 46 43 41 40 41 37 32 32 30 30 32 31 31 31 30 34 40 40 39 42 43 46 48 49 51 53 54 55 55 55 56 55 55
133 132 131 129 129 129 128 126 123 119 115 112 110 109 108 106 104 102 101 101 100 100 99 98 96 96 95 95 94 92 90 88 84 82 81 78 75 74 72 70 70 71 71 71 70 69 66 62 58 54 51 50 50 50 50 50 48 44 42 41 38 36 36 33 32 33 32 32 34 31 34 41 40 39 43 43 44 47 47 49 51 52 54 55 56 56 57 57
135 135 134 134 133 132 130 127 125 122 118 116 114 113 111 109 106 104 103 103 102 101 101 101 99 99 98 98 96 94 92 89 86 84 83 80 77 77 76 73 72 73 74 73 72 71 68 64 61 56 52 50 50 52 54 52 50 47 46 44 42 40 39 36 36 35 31 33 35 33 37 45 43 40 43 44 44 46 48 48 48 49 50 51 52 53 54 55
136 137 137 137 137 135 132 129 127 124 121 119 117 116 114 112 109 107 106 105 104 103 102 102 102 102 102 100 98 95 93 91 89 86 83 81 79 79 79 78 77 77 77 77 76 74 71 66 63 60 57 53 52 54 56 55 52 49 48 48 46 44 43 42 39 36 35 36 33 35 42 46 47 47 45 45 46 46 47 48 48 48 48 48 48 49 50 51
138 138 138 138 137 136 133 130 128 125 123 121 119 117 115 114 112 111 109 107 106 106 106 106 106 105 104 102 100 98 96 94 92 88 85 83 82 82 81 82 82 82 81 81 80 78 74 69 66 64 62 59 57 56 57 56 54 51 50 50 50 49 48 47 43 39 41 37 32 40 48 44 49 55 51 49 49 46 46 47 47 47 48 47 48 48 49 50
138 138 138 138 138 137 134 131 128 127 126 124 122 119 117 116 115 112 110 109 108 109 109 108 108 106 105 104 104 101 98 96 93 89 87 86 86 85 84 84 85 86 85 84 83 81 77 72 68 68 66 63 61 60 59 58 56 54 53 52 53 53 52 51 47 44 45 40 35 46 49 42 48 60 60 58 54 49 48 47 44 44 45 46 49 50 52 53
137 137 137 138 139 138 135 132 130 130 130 128 126 122 118 116 114 112 111 110 109 110 110 109 106 104 105 105 105 103 101 98 94 90 90 90 91 90 89 88 89 89 88 87 86 84 81 75 71 72 70 66 65 64 62 61 58 56 55 54 54 55 54 53 50 48 49 45 43 50 50 42 48 60 66 66 59 53 52 49 46 47 47 46 48 50 53 54
135 135 135 137 138 137 136 134 133 132 131 129 128 125 120 115 113 113 112 111 109 108 109 107 104 103 105 107 108 106 102 98 96 95 95 95 95 95 94 92 91 91 90 89 88 88 85 79 75 76 75 71 69 68 66 65 62 59 57 57 57 56 56 55 54 54 55 52 50 53 48 41 49 63 68 68 64 60 58 55 53 53 51 49 48 50 51 52
133 133 134 135 136 136 135 134 133 132 131 130 127 124 121 118 115 115 115 114 112 109 108 106 104 106 109 110 110 106 100 98 99 99 99 99 98 98 97 95 95 94 92 90 90 90 88 84 80 80 80 76 73 73 70 68 67 62 56 57 60 58 57 58 60 61 60 57 56 54 46 43 55 69 70 67 69 68 65 62 60 57 55 53 52 52 51 49
130 130 131 132 133 134 133 133 133 132 131 129 126 123 122 120 119 118 118 117 115 112 111 109 107 110 112 111 108 103 101 102 104 103 104 103 102 101 100 98 97 95 92 91 92 92 91 88 85 84 84 79 77 76 74 74 72 63 54 56 61 60 60 62 64 64 64 62 59 55 50 51 61 69 70 70 73 73 71 70 67 63 61 60 58 56 54 51
Wind_Direction
290 290 288 284 281 280 282 286 290 294 296 299 301 303 305 307 309 312 315 317 320 325 328 330 332 334 337 340 343 346 349 350 349 350 351 351 351 351 350 351 351 351 351 349 349 349 348 345 341 335 329 321 309 297 287 275 264 254 245 240 235 233 231 229 227 226 225 225 228 230 230 229 228 227 226 226 226 228 231 230 230 232 234 236 238 242 239 232
291 290 288 285 283 283 285 288 291 294 296 298 301 303 304 307 308 311 314 316 320 325 327 331 333 334 337 339 343 345 347 350 350 350 351 351 351 351 351 351 351 351 351 349 348 349 348 346 343 337 330 323 314 303 292 281 268 257 248 240 236 233 231 229 228 227 226 226 228 230 230 229 228 228 226 225 225 227 230 231 231 231 233 234 236 240 240 235
290 290 289 287 286 287 288 290 292 294 296 298 301 302 304 306 307 310 314 316 320 324 327 332 334 334 336 339 342 344 346 349 350 350 351 351 350 351 351 351 351 350 351 350 348 348 348 347 345 340 332 325 318 309 297 283 272 261 250 242 236 233 231 229 228 228 226 226 227 230 231 229 228 228 226 224 224 225 229 231 231 231 232 232 233 236 238 236
289 289 289 289 289 290 291 292 294 296 298 300 302 303 305 305 306 310 313 316 320 324 326 331 335 335 336 338 341 343 345 348 349 351 351 351 350 350 351 351 351 350 350 350 349 348 347 347 346 342 334 327 321 314 303 287 275 266 253 243 237 235 232 229 228 228 227 227 227 229 232 230 228 228 226 224 223 224 227 230 231 230 231 231 231 233 236 236
288 288 288 289 290 292 293 295 296 298 300 301 303 305 306 305 306 310 313 316 320 323 325 329 334 335 336 338 340 341 344 347 349 351 351 351 351 350 350 351 351 350 350 351 349 348 347 347 347 345 337 329 323 316 307 293 279 268 254 243 238 236 233 231 229 228 227 227 227 229 231 231 229 228 227 224 222 223 225 228 229 229 229 230 231 232 235 235
287 287 288 289 291 292 294 295 297 299 301 303 305 306 307 306 307 311 314 317 320 323 325 328 332 334 335 336 339 340 343 346 348 351 351 351 351 350 350 350 351 350 350 350 350 348 347 348 347 346 341 332 326 319 310 300 283 266 254 245 238 235 233 232 230 228 228 227 227 228 230 232 231 228 227 224 221 223 225 226 228 228 228 229 230 232 234 232
288 288 288 289 291 292 293 295 296 298 301 304 306 308 308 308 309 313 315 318 321 324 326 328 330 333 334 335 338 340 341 345 348 350 350 351 351 350 350 350 351 351 350 349 349 349 348 348 348 347 344 337 330 324 316 306 289 266 255 247 240 236 233 232 232 229 228 227 226 227 229 232 232 229 227 224 221 223 225 225 226 227 227 228 231 232 233 230
291 290 290 290 291 292 293 294 296 298 301 303 306 308 310 310 312 315 317 320 322 324 326 328 329 331 333 334 337 340 340 343 347 348 349 350 350 351 351 350 350 351 350 349 349 349 348 348 348 348 346 342 335 330 323 311 294 269 255 250 244 240 234 233 232 230 228 227 226 226 227 230 231 229 226 223 221 222 224 224 224 225 226 227 230 232 232 229
293 293 292 292 292 293 294 295 297 298 300 303 305 307 309 311 313 315 318 320 322 324 326 328 328 329 332 333 336 339 340 342 344 345 347 350 350 350 351 350 350 350 351 350 349 350 349 349 349 349 348 346 342 335 329 317 300 276 258 252 247 242 237 234 233 231 229 227 226 226 226 228 230 229 225 223 222 222 224 224 222 223 225 226 229 232 232 228
294 294 294 294 294 294 295 296 297 298 300 302 304 306 308 309 311 314 316 319 321 322 324 326 326 327 330 332 334 338 340 340 341 343 345 349 349 349 350 350 350 350 350 350 350 350 350 350 350 350 349 349 347 341 334 323 306 285 265 254 248 243 239 235 232 232 231 228 227 226 225 227 230 229 225 224 224 222 222 223 222 221 223 224 226 231 232 227
294 295 295 295 295 295 295 296 297 298 300 301 303 305 306 308 309 312 314 317 318 320 321 324 324 325 327 330 332 335 338 339 339 341 343 346 347 349 349 349 350 350 350 351 350 350 350 350 350 351 351 350 349 346 340 330 315 295 273 257 249 246 241 236 232 232 231 229 228 226 225 226 229 228 225 225 224 221 220 222 222 220 221 223 224 229 233 226
293 294 295 295 295 295 295 296 297 298 299 300 302 303 305 306 308 310 312 314 316 317 318 320 322 323 325 327 329 332 335 338 338 340 341 343 345 347 348 348 349 350 350 351 350 350 350 351 350 351 352 352 351 350 346 339 326 308 285 265 255 247 241 237 233 232 231 230 228 226 225 225 227 226 224 225 224 220 219 221 222 220 220 223 224 228 232 227
291 292 294 295 296 296 296 296 297 298 299 300 301 302 304 305 306 308 310 312 313 314 315 317 319 320 322 324 326 330 332 335 337 338 340 340 342 345 346 347 349 350 350 351 351 350 350 351 351 351 353 354 354 353 350 345 337 323 301 279 266 252 242 239 236 234 232 230 229 226 224 225 226 225 224 225 223 219 219 220 221 219 220 222 223 227 230 229
291 292 292 293 294 295 296 297 297 298 298 299 300 301 303 304 305 306 308 310 311 312 313 314 316 318 320 322 324 327 330 332 334 337 338 339 340 342 344 346 348 349 350 351 352 351 350 351 351 351 353 355 356 356 354 349 344 337 320 298 279 259 248 243 239 237 234 231 230 226 223 224 225 224 224 224 222 218 218 219 220 219 219 221 222 225 228 229
292 292 293 293 293 294 294 295 296 297 298 299 299 300 302 303 304 305 307 308 309 310 311 312 314 316 318 320 321 324 326 329 331 334 337 338 338 340 343 345 346 348 349 351 352 352 351 350 351 351 352 355 356 358 357 352 349 346 337 320 294 268 255 248 242 239 235 231 230 226 223 224 226 225 224 223 221 218 216 218 219 218 219 220 221 224 225 227
291 292 293 293 294 293 292 292 293 295 296 297 298 299 300 301 302 304 305 307 308 309 310 311 313 314 316 317 319 322 324 326 328 330 334 337 337 338 341 343 345 347 348 350 351 352 352 351 351 351 352 354 357 360 0 356 351 350 348 341 321 289 263 251 244 241 237 232 230 227 223 225 227 225 223 222 220 218 215 216 217 216 217 218 220 222 223 225
288 290 291 292 294 294 291 290 291 292 294 295 297 298 299 299 301 302 304 305 307 308 308 310 312 314 315 316 318 320 322 323 325 327 331 334 336 337 339 341 343 345 348 349 351 352 353 352 351 351 351 354 357 360 2 360 355 352 352 351 343 319 284 260 249 242 237 232 230 227 223 226 228 226 223 221 219 217 215 215 216 215 216 216 219 221 222 224
283 286 287 289 292 294 293 290 290 290 292 293 295 296 297 298 299 300 302 304 305 307 307 308 310 312 314 315 317 319 320 322 323 325 328 331 334 336 337 339 340 344 347 349 350 352 353 353 351 350 351 353 355 359 3 2 358 355 354 354 352 341 311 282 261 248 240 234 231 228 226 229 230 226 222 219 217 215 214 214 214 214 214 215 218 219 221 223
279 281 283 285 288 292 293 292 291 290 291 291 293 294 295 296 297 299 301 302 303 305 306 307 308 310 313 314 315 317 319 321 322 323 326 328 332 334 335 337 338 342 346 348 349 351 352 354 352 350 350 352 354 358 2 3 1 359 357 355 352 348 332 299 274 255 244 237 233 231 228 231 231 225 219 217 214 213 213 212 213 213 213 214 216 218 219 222
278 278 279 281 285 288 291 292 293 292 291 291 292 293 293 294 296 298 299 300 301 303 304 305 306 308 311 312 313 315 316 319 320 321 324 325 328 331 333 335 337 339 344 347 348 350 352 354 353 351 350 351 352 356 1 3 3 2 1 359 354 349 340 317 282 256 245 240 237 233 230 233 232 223 217 215 211 211 212 211 211 211 212 212 213 216 218 221
277 277 277 279 282 285 288 290 291 292 292 292 291 292 292 292 294 296 297 298 299 300 302 303 304 306 308 310 311 313 314 317 318 319 322 323 325 328 330 333 335 337 341 345 346 347 351 353 353 352 350 350 351 354 359 2 3 4 4 4 2 357 350 342 311 264 246 242 236 228 227 232 232 222 214 212 209 209 210 210 210 210 210 210 211 214 217 220
275 275 276 277 280 283 285 287 289 290 292 292 291 291 291 291 293 295 296 297 297 298 299 301 302 303 306 307 309 311 312 314 316 317 319 321 322 325 327 330 333 335 338 342 344 345 349 352 353 353 351 349 349 351 356 0 2 3 5 8 9 8 5 1 351 314 262 246 234 221 222 229 228 218 211 209 207 208 209 209 209 209 209 208 210 214 216 219
273 274 274 275 277 280 283 285 286 288 290 292 291 290 290 290 292 293 294 296 297 297 298 300 300 302 303 305 306 308 310 312 314 316 317 318 320 322 324 327 330 333 335 339 342 343 346 349 351 353 352 350 348 349 353 358 1 1 5 10 12 15 15 14 12 1 323 264 236 222 225 228 222 212 207 206 206 207 208 208 208 207 207 207 209 213 216 217
272 272 273 274 275 278 281 283 284 286 289 290 291 290 289 290 290 291 292 294 295 296 297 298 299 299 301 302 304 306 308 310 312 313 315 317 318 319 322 324 326 330 332 335 339 341 342 346 350 352 353 351 348 348 350 354 359 1 4 10 14 17 20 21 20 14 6 340 258 232 233 227 211 205 204 203 203 206 207 208 207 207 207 207 209 212 215 217
271 272 272 273 275 277 280 282 283 285 287 288 289 288 289 289 289 290 291 292 293 294 296 297 296 297 299 301 302 304 306 308 310 311 313 315 315 316 318 321 323 326 329 331 335 339 339 341 347 350 352 352 349 347 348 350 356 359 1 8 15 17 20 22 23 20 19 17 359 258 235 208 196 200 201 200 203 205 207 207 207 207 207 207 208 211 215 217
270 271 272 273 275 277 279 280 281 283 285 286 286 287 287 288 289 289 289 291 292 292 293 294 294 295 296 298 300 302 304 305 307 309 311 312 313 313 315 317 320 322 325 327 330 335 337 338 344 349 351 352 351 347 346 347 352 356 358 3 12 17 18 23 26 24 24 25 31 40 124 176 189 197 197 199 203 205 206 207 207 207 207 206 206 210 214 216
269 270 271 272 274 276 278 279 280 281 283 284 284 284 285 286 287 288 288 291 292 290 291 292 292 293 294 296 298 299 301 303 304 306 308 310 310 311 312 314 316 319 322 325 326 330 335 337 340 345 348 351 351 348 346 346 347 352 355 358 5 10 11 18 27 28 28 28 36 65 109 166 186 192 194 198 202 205 207 207 207 207 208 207 207 210 213 216
268 269 270 271 273 275 277 277 278 280 281 282 282 283 284 284 285 285 287 291 292 288 288 289 289 291 292 293 294 296 298 300 301 302 305 307 307 308 309 311 313 315 318 322 323 325 330 334 337 341 346 350 352 348 345 344 344 348 352 353 360 5 2 5 19 29 32 34 38 61 120 158 172 181 190 197 201 204 206 207 208 209 209 209 209 210 213 216
268 268 269 270 272 274 276 276 277 279 280 280 280 281 282 282 283 284 287 293 291 285 285 287 287 289 289 290 292 294 295 296 297 299 302 304 304 305 306 307 309 311 314 318 320 321 325 330 333 337 342 347 351 350 346 343 342 344 347 349 355 4 359 355 7 23 23 31 56 69 99 135 159 174 185 193 198 201 204 206 208 210 211 211 212 213 215 218
268 269 269 271 272 274 275 276 277 278 278 278 279 280 280 281 282 283 290 293 286 281 284 285 285 286 287 289 290 291 292 293 294 296 299 301 301 302 303 304 306 308 310 313 316 317 320 324 328 332 337 341 347 351 348 343 339 339 341 343 346 356 359 352 1 16 12 16 65 84 100 127 156 172 181 189 193 196 199 203 206 208 210 212 214 215 217 220
269 270 271 272 273 274 275 275 276 277 276 277 278 278 279 279 280 286 292 289 281 281 283 282 282 284 286 288 288 288 289 290 291 294 296 297 298 299 300 301 303 305 306 309 311 313 315 318 321 326 332 336 341 346 348 345 338 333 333 335 337 340 341 344 354 4 5 10 32 83 116 125 142 161 173 179 183 189 196 201 204 206 209 211 214 216 219 222
270 270 272 273 274 275 275 275 276 275 275 276 276 276 277 277 282 289 290 284 280 281 280 279 280 283 285 287 287 287 287 287 289 292 293 294 295 296 297 298 300 301 303 305 307 309 311 313 316 320 325 330 335 340 343 344 340 332 326 323 325 327 321 317 328 333 339 1 354 60 133 133 138 152 164 171 177 186 195 200 204 207 210 212 215 217 220 223
270 271 272 273 273 274 275 275 275 274 273 273 273 274 275 278 285 288 284 280 279 279 277 278 280 282 284 285 285 285 285 286 288 289 291 292 292 293 294 295 296 298 299 302 303 304 307 309 312 315 318 323 329 334 336 339 339 335 327 317 311 312 311 306 304 302 291 250 269 273 170 155 157 170 177 177 182 189 196 201 202 206 213 216 219 221 223 225
270 271 271 272 272 273 274 274 273 272 271 272 272 273 275 280 285 283 279 278 277 276 277 278 279 281 282 282 282 283 284 285 286 287 289 290 290 291 291 292 292 293 295 298 299 300 302 305 309 311 312 315 321 327 330 333 336 336 332 322 308 296 293 294 293 294 286 254 233 237 224 188 177 190 190 181 187 199 204 208 205 205 212 219 223 226 227 228
268 269 270 270 271 271 272 271 271 271 271 271 271 272 276 280 280 278 276 275 275 276 277 277 278 279 279 280 281 281 282 284 285 287 288 288 288 289 289 289 289 290 291 293 296 298 298 300 304 306 306 308 313 319 323 327 330 331 332 328 315 297 284 279 277 278 279 270 254 244 238 219 202 207 201 190 195 206 212 216 214 212 215 220 223 225 226 227
266 267 268 268 268 268 268 269 269 269 270 270 270 273 276 278 276 275 275 274 275 275 275 275 276 277 277 278 279 280 282 284 285 287 287 286 286 287 287 286 287 287 287 289 293 294 294 296 300 301 300 302 306 311 314 319 324 324 325 327 323 310 295 280 270 266 265 266 263 256 252 242 226 220 215 204 202 206 210 215 218 218 219 222 225 226 227 228
265 265 265 265 265 266 266 267 267 267 268 268 269 272 275 275 274 275 274 274 273 273 273 274 276 276 276 277 278 279 281 283 285 285 285 284 285 285 284 285 285 284 284 287 290 290 291 294 295 295 296 297 301 305 306 312 319 317 316 322 323 319 311 292 275 266 260 259 259 257 254 252 243 234 230 223 215 213 214 217 220 221 222 224 227 229 231 233
265 264 264 264 264 265 265 265 265 266 266 267 269 272 273 273 274 274 273 272 272 272 273 274 275 274 275 276 278 279 280 282 282 282 283 283 283 283 283 283 283 282 282 284 286 286 288 289 290 291 293 294 297 298 301 308 312 307 309 316 318 319 317 307 287 272 263 259 257 255 252 250 246 240 237 236 231 227 225 224 224 225 225 227 229 232 234 237
264 263 263 263 263 264 264 265 265 265 265 267 269 270 270 271 271 271 272 272 272 272 273 273 273 273 274 275 277 278 279 280 280 281 281 282 283 282 281 281 281 280 281 282 283 283 284 285 286 286 289 292 292 292 298 304 301 298 302 307 312 318 318 311 300 284 273 266 262 260 257 252 247 244 240 237 236 235 235 235 233 232 232 232 233 234 237 240
262 262 262 263 262 262 263 264 264 265 267 268 268 268 268 269 269 270 271 271 271 271 271 271 271 272 273 274 275 276 277 277 278 279 280 282 283 282 280 279 279 280 281 281 280 280 280 281 281 283 286 287 287 291 296 295 291 292 295 297 306 317 316 311 307 297 287 277 269 267 264 258 252 249 245 240 238 238 239 241 242 240 240 240 239 240 241 243
261 261 262 262 262 262 263 263 263 265 265 266 266 267 267 267 267 268 268 268 268 269 269 270 270 272 272 273 274 274 274 274 276 278 280 282 282 281 280 279 279 279 279 279 278 277 277 277 279 281 282 282 285 290 291 289 287 286 287 290 300 312 313 309 303 298 295 290 281 275 271 266 259 254 252 248 244 242 242 243 245 245 244 244 245 245 246 247
261 261 262 262 262 262 262 262 262 263 263 264 265 266 266 265 265 265 265 266 267 268 268 269 270 271 271 272 272 271 272 274 276 278 279 281 281 281 279 278 277 277 276 276 276 276 276 276 278 278 278 280 284 286 286 286 283 279 281 287 296 304 303 301 298 296 299 298 290 283 277 273 268 262 258 255 251 248 246 246 247 247 247 247 248 249 250 251
260 261 261 260 260 261 261 261 261 262 263 263 263 263 263 263 263 264 264 265 266 267 267 268 268 268 269 269 270 270 272 274 275 277 278 279 280 279 278 276 275 274 274 274 274 275 275 276 276 276 277 279 281 282 283 281 277 278 281 286 291 293 291 296 298 295 299 298 292 289 279 273 273 270 266 262 259 256 252 249 249 249 249 249 250 251 252 253
259 259 259 259 259 259 259 260 261 262 262 261 261 261 262 262 262 263 264 265 265 266 267 267 267 267 267 268 269 270 272 274 275 276 276 277 277 276 275 273 272 272 273 273 274 274 275 275 275 275 276 277 278 278 278 276 276 280 281 281 283 283 285 292 292 292 297 292 288 291 280 272 275 275 270 268 265 263 260 256 254 253 252 252 252 252 253 253
257 257 258 258 258 258 258 259 260 260 260 261 261 261 261 262 262 262 263 263 264 265 266 266 266 266 266 267 269 270 272 273 274 274 274 275 275 274 273 271 270 270 271 272 273 274 274 274 275 275 274 275 275 274 274 274 277 281 280 278 277 277 281 284 286 292 293 281 284 290 277 272 276 275 272 271 268 265 264 262 260 259 257 256 256 256 256 256
255 256 256 257 257 258 258 259 259 260 260 260 260 261 261 262 262 261 261 262 262 263 264 264 265 266 266 268 269 270 271 271 272 272 272 273 273 273 272 272 270 270 270 271 272 273 273 273 274 274 275 275 273 272 272 273 275 277 277 277 276 275 275 279 285 289 283 279 288 283 270 271 277 274 271 271 268 266 266 265 264 263 262 261 261 260 260 259
254 254 255 256 257 258 258 258 259 259 259 259 259 259 260 260 260 260 260 261 262 263 263 264 265 266 267 269 269 269 270 270 270 271 271 271 271 271 271 271 270 269 269 270 271 272 273 273 274 274 275 275 273 271 271 271 272 273 273 273 273 272 272 277 282 281 279 286 288 271 266 273 276 274 271 268 267 270 270 268 266 265 264 264 263 261 260 259
252 253 254 255 256 257 257 258 258 258 258 258 257 257 257 258 259 260 261 261 262 262 263 264 266 267 269 269 269 269 268 269 270 271 271 271 270 269 268 268 268 269 269 270 271 273 273 274 275 275 275 275 274 272 270 269 269 269 270 271 271 270 271 274 277 277 280 284 276 264 265 271 273 276 274 268 267 270 270 269 269 268 267 264 262 260 259 258
251 252 253 254 255 256 256 256 256 257 257 257 258 257 257 258 260 261 261 261 261 262 263 264 266 267 267 267 267 267 268 269 270 270 270 269 269 268 268 267 268 269 270 271 272 273 274 275 275 275 275 274 273 272 271 269 267 266 267 269 269 270 271 273 275 275 274 273 267 263 265 267 270 275 274 270 269 270 270 269 267 264 263 262 263 263 262 262
250 251 251 252 253 254 255 255 255 256 256 257 258 258 258 258 258 259 260 260 260 261 262 263 264 263 263 264 265 267 269 270 270 270 269 268 267 267 267 267 267 268 269 271 272 274 275 275 274 274 274 273 273 272 271 270 268 266 266 268 270 271 272 273 272 269 267 267 265 264 266 267 267 267 268 271 273 271 269 267 265 264 265 265 266 266 264 264
250 250 250 250 251 252 253 254 254 255 255 256 256 257 258 257 257 256 257 258 258 258 258 260 261 261 262 263 265 268 269 268 267 267 267 265 265 265 266 267 268 269 271 272 272 273 274 273 273 273 273 274 273 272 271 271 269 269 269 270 270 271 271 270 267 265 265 265 265 267 268 264 260 261 265 270 271 270 269 267 267 267 269 268 266 264 264 264
250 250 250 250 250 251 252 252 253 253 254 255 256 256 256 256 256 255 255 256 257 258 258 258 258 259 261 263 265 266 265 264 265 265 265 264 265 266 267 268 268 269 270 271 271 271 272 273 273 272 273 273 272 271 271 270 269 271 273 271 269 269 268 266 265 265 265 265 265 269 268 261 258 261 264 265 266 267 268 268 266 266 268 269 268 266 266 266
Height
10752 10751 10751 10750 10750 10750 10749 10748 10747 10746 10744 10743 10742 10740 10738 10736 10734 10732 10729 10726 10724 10721 10718 10715 10711 10707 10703 10698 10693 10687 10683 10678 10673 10668 10662 10657 10652 10646 10640 10634 10629 10624 10619 10614 10608 10603 10598 10593 10587 10582 10580 10579 10576 10573 10572 10572 10570 10571 10574 10578 10583 10586 10590 10594 10598 10602 10605 10606 10604 10603 10606 10618 10628 10634 10645 10653 10663 10669 10670 10678 10684 10688 10695 10701 10702 10698 10706 10717
10749 10748 10748 10747 10747 10747 10746 10745 10744 10743 10741 10740 10738 10737 10735 10733 10731 10729 10727 10723 10721 10718 10715 10712 10708 10704 10700 10696 10691 10685 10680 10676 10671 10666 10661 10656 10651 10645 10639 10633 10628 10623 10618 10613 10608 10602 10597 10593 10586 10580 10575 10572 10571 10569 10567 10566 10564 10565 10567 10571 10575 10576 10580 10584 10588 10592 10596 10598 10597 10597 10601 10613 10622 10628 10639 10649 10657 10664 10667 10673 10678 10684 10688 10694 10696 10692 10698 10710
10747 10746 10745 10744 10744 10744 10743 10742 10741 10740 10738 10736 10735 10733 10732 10730 10728 10726 10724 10721 10718 10715 10712 10709 10705 10702 10698 10694 10689 10684 10678 10673 10668 10663 10659 10654 10649 10644 10639 10633 10627 10622 10617 10612 10607 10601 10596 10591 10585 10579 10572 10566 10564 10563 10562 10560 10559 10559 10561 10565 10565 10566 10569 10573 10578 10582 10587 10590 10592 10594 10596 10608 10618 10622 10633 10644 10652 10661 10666 10667 10672 10678 10681 10686 10687 10684 10691 10704
10744 10743 10742 10741 10741 10740 10740 10739 10738 10736 10735 10733 10732 10730 10728 10726 10724 10723 10721 10718 10716 10713 10710 10706 10703 10699 10695 10692 10687 10682 10676 10671 10666 10662 10657 10652 10647 10642 10637 10631 10626 10621 10615 10610 10605 10600 10594 10588 10583 10577 10570 10564 10559 10556 10555 10554 10553 10554 10556 10557 10555 10556 10561 10564 10568 10573 10578 10583 10588 10589 10591 10602 10611 10615 10627 10639 10648 10658 10662 10660 10663 10669 10672 10677 10678 10677 10687 10701
10741 10740 10739 10739 10738 10737 10737 10735 10734 10733 10732 10730 10729 10727 10725 10723 10721 10720 10718 10715 10713 10710 10707 10704 10701 10697 10693 10690 10686 10681 10676 10670 10664 10659 10654 10649 10644 10639 10634 10629 10624 10618 10613 10609 10603 10598 10593 10586 10580 10574 10567 10561 10555 10551 10548 10547 10548 10548 10548 10548 10547 10549 10553 10556 10559 10565 10570 10576 10582 10585 10587 10594 10600 10611 10624 10634 10646 10654 10653 10651 10654 10660 10665 10669 10670 10673 10684 10698
10739 10738 10737 10736 10735 10734 10734 10732 10731 10730 10728 10726 10725 10724 10722 10720 10718 10717 10715 10713 10710 10708 10704 10701 10698 10696 10692 10688 10684 10680 10675 10670 10664 10657 10652 10647 10642 10637 10632 10626 10621 10615 10610 10606 10601 10596 10591 10585 10578 10571 10565 10557 10552 10546 10542 10541 10541 10541 10540 10540 10540 10542 10545 10548 10551 10557 10562 10570 10577 10580 10583 10586 10595 10611 10619 10629 10643 10645 10643 10644 10646 10652 10658 10661 10664 10670 10682 10693
10736 10735 10734 10733 10732 10731 10730 10729 10728 10726 10725 10723 10722 10720 10719 10717 10715 10714 10712 10710 10707 10705 10702 10699 10695 10693 10689 10685 10682 10678 10673 10668 10663 10657 10652 10646 10641 10636 10631 10625 10620 10614 10608 10603 10598 10593 10588 10582 10576 10569 10562 10555 10548 10542 10537 10535 10535 10534 10532 10533 10534 10535 10538 10540 10544 10550 10556 10563 10569 10573 10579 10583 10592 10604 10611 10624 10636 10635 10634 10636 10639 10645 10652 10656 10660 10669 10679 10688
10732 10731 10731 10729 10728 10728 10727 10726 10724 10723 10721 10720 10718 10717 10715 10713 10712 10710 10709 10707 10704 10702 10700 10697 10693 10690 10687 10683 10680 10676 10670 10665 10661 10656 10652 10647 10641 10635 10630 10625 10619 10613 10607 10602 10596 10591 10585 10579 10573 10565 10558 10551 10544 10538 10533 10530 10529 10528 10526 10527 10529 10531 10533 10534 10538 10543 10549 10555 10559 10566 10575 10578 10583 10592 10605 10619 10625 10625 10623 10626 10634 10642 10647 10653 10658 10664 10674 10683
10728 10728 10727 10726 10725 10724 10723 10722 10721 10720 10718 10716 10715 10713 10712 10710 10708 10707 10705 10703 10701 10699 10697 10694 10691 10688 10685 10681 10677 10674 10669 10663 10659 10655 10650 10646 10640 10635 10630 10624 10618 10612 10606 10600 10594 10589 10583 10577 10570 10563 10556 10549 10541 10534 10530 10526 10524 10523 10521 10522 10524 10526 10527 10529 10533 10537 10542 10548 10552 10561 10569 10571 10573 10583 10602 10613 10614 10614 10613 10620 10633 10638 10642 10649 10654 10659 10668 10678
10724 10724 10723 10722 10721 10720 10720 10719 10718 10716 10714 10713 10711 10710 10709 10707 10705 10703 10702 10700 10698 10696 10694 10692 10688 10685 10683 10679 10675 10672 10668 10662 10657 10653 10648 10644 10639 10634 10629 10624 10618 10612 10605 10599 10593 10587 10581 10575 10569 10562 10555 10547 10541 10533 10527 10523 10521 10520 10518 10519 10519 10521 10523 10526 10529 10530 10536 10541 10547 10556 10562 10565 10566 10581 10602 10605 10600 10601 10607 10618 10627 10632 10638 10644 10650 10655 10663 10676
10721 10720 10719 10718 10717 10716 10716 10715 10714 10713 10711 10709 10708 10707 10705 10704 10702 10700 10698 10697 10694 10692 10690 10689 10686 10683 10681 10678 10674 10670 10666 10662 10656 10652 10647 10642 10638 10634 10629 10624 10618 10611 10605 10598 10592 10586 10580 10574 10568 10562 10554 10546 10540 10533 10527 10521 10518 10517 10516 10515 10514 10517 10519 10522 10523 10524 10530 10536 10542 10549 10556 10561 10564 10581 10595 10586 10583 10594 10608 10615 10619 10630 10636 10641 10649 10653 10661 10675
10717 10716 10715 10714 10713 10712 10711 10711 10710 10709 10708 10706 10704 10703 10701 10700 10699 10697 10695 10693 10691 10689 10687 10686 10683 10680 10678 10676 10672 10669 10665 10661 10656 10650 10646 10641 10637 10633 10628 10623 10617 10611 10605 10598 10592 10585 10579 10574 10568 10562 10554 10546 10538 10532 10526 10521 10516 10514 10513 10512 10511 10514 10515 10517 10519 10521 10527 10531 10536 10543 10552 10558 10561 10575 10578 10569 10578 10597 10608 10611 10617 10630 10636 10639 10648 10651 10660 10673
10713 10712 10711 10710 10709 10707 10707 10706 10706 10705 10704 10703 10701 10699 10698 10696 10695 10694 10692 10690 10688 10686 10684 10682 10681 10677 10675 10673 10670 10667 10663 10659 10655 10650 10645 10640 10635 10631 10627 10622 10617 10610 10604 10598 10591 10585 10579 10573 10568 10562 10554 10546 10538 10531 10526 10521 10516 10513 10511 10510 10510 10512 10512 10514 10518 10520 10524 10527 10531 10540 10548 10551 10554 10562 10561 10563 10581 10597 10604 10609 10616 10628 10633 10638 10646 10650 10659 10668
10709 10708 10707 10706 10705 10703 10702 10702 10701 10701 10700 10699 10697 10696 10694 10692 10691 10690 10689 10687 10685 10683 10681 10679 10677 10674 10672 10670 10667 10665 10662 10658 10654 10650 10645 10640 10635 10630 10626 10621 10616 10610 10604 10598 10591 10585 10578 10573 10567 10562 10555 10547 10540 10533 10526 10521 10517 10513 10510 10509 10510 10510 10511 10514 10517 10518 10521 10524 10528 10536 10543 10544 10546 10550 10552 10564 10582 10592 10601 10607 10614 10623 10629 10636 10643 10649 10656 10663
10704 10704 10703 10702 10701 10700 10699 10698 10697 10696 10695 10695 10694 10692 10690 10688 10687 10686 10685 10684 10682 10680 10678 10675 10674 10671 10669 10667 10665 10662 10659 10656 10652 10649 10645 10639 10634 10629 10625 10620 10615 10610 10604 10598 10591 10585 10579 10573 10567 10562 10556 10549 10542 10534 10528 10522 10517 10514 10511 10509 10509 10509 10511 10513 10515 10516 10518 10521 10526 10532 10537 10539 10539 10541 10550 10565 10577 10587 10598 10604 10610 10619 10625 10632 10639 10645 10651 10656
10699 10699 10698 10698 10697 10695 10694 10693 10693 10692 10691 10690 10689 10688 10687 10685 10683 10682 10681 10680 10679 10677 10675 10672 10670 10669 10666 10664 10662 10660 10657 10654 10650 10647 10643 10639 10634 10629 10624 10619 10615 10610 10604 10598 10592 10586 10580 10574 10568 10563 10558 10551 10543 10536 10529 10523 10518 10514 10511 10509 10509 10509 10510 10512 10512 10513 10515 10519 10524 10529 10533 10534 10533 10538 10551 10563 10573 10585 10595 10600 10606 10613 10620 10627 10633 10638 10645 10650
10694 10694 10694 10693 10692 10691 10690 10689 10688 10687 10687 10686 10685 10684 10683 10681 10679 10678 10677 10677 10675 10674 10671 10669 10667 10665 10664 10661 10659 10657 10655 10652 10648 10645 10642 10638 10634 10628 10624 10619 10614 10610 10605 10599 10593 10587 10581 10575 10569 10564 10559 10553 10545 10538 10531 10525 10520 10516 10513 10510 10509 10509 10510 10510 10511 10511 10513 10518 10522 10526 10530 10530 10530 10539 10552 10562 10572 10583 10591 10596 10601 10608 10615 10622 10627 10633 10639 10644
10688 10689 10689 10688 10687 10686 10685 10685 10684 10683 10682 10682 10681 10680 10679 10677 10675 10674 10673 10672 10672 10671 10668 10665 10664 10662 10661 10658 10656 10654 10652 10649 10646 10643 10640 10637 10633 10628 10624 10619 10614 10610 10605 10600 10594 10588 10582 10577 10571 10565 10559 10554 10548 10541 10534 10528 10523 10519 10515 10512 10510 10510 10510 10510 10510 10511 10513 10517 10521 10524 10528 10528 10530 10541 10551 10559 10569 10579 10586 10591 10596 10604 10611 10617 10622 10628 10634 10639
10683 10683 10683 10683 10682 10682 10681 10680 10679 10679 10678 10677 10677 10676 10675 10674 10672 10670 10670 10668 10668 10667 10664 10662 10660 10660 10658 10655 10653 10651 10649 10647 10644 10641 10638 10635 10632 10628 10623 10619 10614 10610 10605 10600 10594 10589 10584 10578 10573 10567 10561 10556 10551 10544 10538 10532 10527 10522 10519 10515 10513 10511 10510 10510 10511 10512 10514 10517 10520 10523 10527 10527 10530 10540 10548 10555 10565 10574 10580 10586 10592 10599 10606 10612 10618 10625 10631 10635
10677 10677 10677 10677 10677 10677 10676 10675 10675 10674 10673 10673 10672 10672 10671 10670 10669 10667 10666 10664 10664 10664 10661 10658 10656 10656 10656 10652 10650 10648 10646 10645 10642 10639 10637 10634 10631 10627 10623 10619 10614 10610 10606 10601 10596 10591 10586 10580 10575 10569 10563 10558 10553 10548 10542 10536 10531 10526 10522 10519 10516 10514 10512 10511 10511 10512 10514 10517 10519 10523 10526 10526 10528 10538 10545 10552 10562 10569 10574 10581 10587 10594 10601 10609 10616 10623 10627 10630
10670 10670 10670 10670 10671 10671 10671 10670 10669 10669 10669 10669 10668 10668 10666 10665 10665 10664 10663 10660 10659 10660 10658 10656 10652 10651 10652 10650 10647 10645 10643 10642 10640 10637 10635 10632 10629 10626 10622 10619 10615 10610 10606 10602 10597 10592 10588 10583 10578 10572 10566 10561 10556 10551 10546 10540 10535 10530 10526 10522 10519 10517 10515 10513 10513 10513 10515 10517 10519 10523 10525 10524 10527 10536 10543 10550 10558 10564 10569 10576 10582 10589 10598 10606 10613 10618 10622 10626
10663 10663 10663 10664 10664 10665 10665 10664 10664 10663 10663 10663 10664 10663 10661 10660 10661 10660 10659 10656 10654 10656 10655 10653 10649 10647 10647 10646 10644 10642 10640 10639 10637 10635 10633 10630 10628 10625 10622 10618 10614 10610 10606 10602 10598 10593 10589 10585 10580 10575 10569 10564 10559 10554 10550 10544 10539 10534 10530 10526 10523 10520 10518 10517 10516 10516 10516 10518 10520 10522 10523 10524 10527 10535 10541 10548 10554 10559 10566 10573 10579 10587 10596 10603 10609 10614 10619 10625
10657 10656 10656 10657 10657 10658 10658 10658 10658 10657 10657 10658 10659 10658 10656 10655 10656 10656 10656 10653 10649 10649 10652 10650 10646 10643 10643 10642 10640 10639 10637 10636 10635 10633 10630 10628 10626 10623 10620 10617 10614 10610 10606 10603 10599 10594 10590 10587 10582 10577 10572 10567 10562 10557 10553 10549 10544 10539 10535 10531 10527 10524 10522 10520 10519 10519 10519 10519 10521 10522 10523 10524 10528 10534 10540 10546 10552 10557 10564 10571 10578 10586 10593 10600 10607 10612 10619 10624
10649 10649 10649 10649 10650 10651 10651 10651 10651 10651 10651 10652 10652 10652 10651 10651 10651 10651 10652 10651 10645 10642 10646 10647 10643 10640 10639 10638 10636 10635 10634 10632 10631 10629 10627 10626 10623 10621 10619 10616 10613 10610 10606 10603 10600 10596 10591 10588 10584 10579 10574 10570 10565 10560 10556 10552 10548 10544 10540 10536 10532 10529 10526 10524 10523 10522 10522 10522 10523 10524 10525 10527 10530 10535 10540 10545 10551 10556 10563 10570 10577 10585 10591 10598 10606 10612 10617 10622
10641 10641 10642 10641 10642 10643 10644 10644 10643 10644 10645 10646 10646 10645 10645 10646 10646 10646 10647 10649 10643 10635 10638 10642 10639 10637 10635 10634 10633 10631 10630 10628 10627 10626 10624 10623 10621 10619 10617 10615 10612 10609 10606 10603 10600 10597 10592 10589 10586 10581 10576 10572 10567 10563 10559 10555 10552 10548 10545 10541 10537 10534 10532 10529 10528 10527 10526 10526 10526 10527 10528 10530 10533 10536 10540 10546 10550 10556 10563 10570 10577 10584 10591 10599 10606 10611 10615 10620
10632 10633 10634 10633 10634 10634 10636 10636 10635 10636 10638 10638 10639 10639 10639 10640 10641 10641 10641 10645 10643 10632 10630 10633 10633 10633 10632 10631 10630 10628 10626 10625 10623 10622 10621 10620 10618 10616 10615 10613 10610 10608 10605 10602 10599 10598 10594 10589 10586 10582 10578 10575 10571 10567 10562 10558 10555 10553 10549 10546 10542 10540 10537 10535 10533 10532 10531 10531 10531 10531 10533 10534 10536 10538 10543 10547 10552 10558 10564 10570 10577 10584 10590 10597 10603 10607 10612 10617
10624 10625 10625 10625 10626 10626 10628 10627 10626 10629 10630 10630 10631 10632 10633 10634 10635 10636 10635 10640 10641 10630 10625 10625 10625 10627 10627 10627 10626 10624 10623 10622 10619 10619 10618 10617 10615 10613 10612 10610 10608 10606 10604 10601 10598 10596 10595 10591 10586 10583 10580 10576 10572 10569 10566 10563 10559 10557 10554 10550 10547 10545 10542 10540 10538 10537 10536 10536 10536 10536 10537 10538 10540 10543 10547 10551 10555 10560 10565 10571 10577 10582 10587 10593 10599 10605 10610 10616
10615 10616 10616 10617 10617 10618 10620 10618 10617 10621 10622 10622 10623 10624 10626 10627 10628 10629 10630 10636 10637 10627 10620 10619 10618 10620 10621 10621 10621 10620 10619 10618 10616 10615 10615 10614 10612 10610 10609 10607 10606 10604 10602 10600 10597 10594 10593 10591 10588 10584 10581 10577 10574 10570 10568 10565 10562 10559 10557 10555 10552 10549 10547 10544 10542 10541 10541 10541 10541 10541 10541 10542 10544 10547 10550 10553 10557 10562 10567 10572 10577 10581 10586 10592 10598 10605 10610 10614
10606 10607 10607 10608 10608 10609 10610 10609 10609 10612 10613 10613 10614 10616 10618 10619 10621 10622 10625 10631 10630 10621 10615 10613 10612 10614 10615 10615 10616 10615 10614 10613 10612 10611 10611 10611 10609 10607 10606 10604 10603 10601 10599 10599 10597 10592 10590 10590 10588 10585 10583 10579 10576 10573 10569 10567 10564 10562 10560 10558 10556 10553 10551 10549 10547 10546 10545 10545 10545 10545 10546 10547 10548 10550 10552 10555 10559 10563 10568 10573 10578 10583 10588 10594 10599 10604 10609 10613
10596 10598 10597 10598 10599 10599 10601 10600 10599 10602 10603 10603 10605 10608 10609 10611 10613 10615 10621 10626 10620 10614 10611 10606 10606 10607 10608 10610 10610 10610 10609 10608 10607 10606 10607 10606 10605 10604 10603 10601 10600 10598 10596 10596 10595 10592 10589 10587 10586 10585 10583 10580 10578 10575 10572 10569 10567 10565 10563 10561 10560 10558 10557 10555 10553 10552 10551 10550 10549 10549 10550 10551 10552 10553 10555 10558 10562 10566 10570 10575 10579 10584 10589 10594 10599 10604 10608 10611
10584 10585 10586 10588 10588 10589 10591 10590 10590 10591 10591 10593 10596 10598 10600 10603 10605 10609 10618 10616 10608 10607 10605 10599 10599 10601 10602 10605 10604 10604 10604 10602 10602 10602 10602 10601 10600 10600 10599 10598 10597 10595 10594 10592 10592 10591 10589 10586 10584 10583 10582 10580 10578 10576 10574 10571 10569 10567 10566 10564 10563 10562 10561 10559 10558 10557 10556 10555 10554 10554 10554 10555 10556 10557 10559 10562 10566 10569 10573 10576 10581 10585 10590 10594 10598 10603 10606 10609
10571 10572 10574 10576 10576 10577 10578 10580 10581 10580 10579 10582 10584 10588 10590 10593 10599 10607 10611 10604 10598 10600 10597 10591 10593 10594 10596 10598 10597 10598 10598 10597 10597 10597 10597 10596 10595 10595 10594 10594 10593 10592 10591 10590 10588 10588 10587 10586 10583 10582 10581 10580 10578 10576 10574 10573 10571 10569 10568 10566 10565 10564 10563 10562 10561 10560 10559 10559 10558 10558 10558 10558 10560 10562 10564 10567 10569 10572 10576 10579 10582 10586 10590 10594 10597 10601 10604 10606
10559 10560 10562 10565 10565 10564 10566 10568 10569 10569 10570 10570 10573 10577 10579 10585 10598 10604 10600 10593 10589 10590 10587 10584 10586 10587 10589 10591 10590 10591 10591 10591 10592 10592 10591 10591 10590 10589 10589 10588 10589 10588 10587 10587 10586 10584 10584 10583 10582 10580 10579 10578 10577 10575 10574 10572 10571 10570 10568 10567 10567 10566 10564 10563 10563 10562 10562 10562 10561 10561 10562 10562 10564 10566 10568 10570 10573 10576 10578 10580 10583 10587 10590 10593 10596 10599 10601 10603
10546 10547 10550 10554 10553 10552 10555 10556 10556 10558 10559 10558 10562 10566 10569 10581 10594 10595 10589 10584 10580 10578 10579 10578 10579 10579 10581 10583 10583 10584 10584 10585 10586 10586 10586 10586 10584 10583 10583 10583 10583 10583 10583 10583 10583 10582 10580 10580 10580 10579 10577 10576 10576 10575 10573 10571 10570 10570 10569 10568 10567 10566 10565 10564 10564 10564 10564 10563 10563 10563 10564 10565 10567 10569 10570 10572 10575 10578 10580 10582 10584 10587 10590 10593 10595 10596 10598 10600
10534 10536 10539 10542 10542 10541 10543 10544 10544 10545 10547 10548 10549 10552 10564 10579 10584 10582 10580 10576 10570 10570 10570 10570 10571 10573 10574 10575 10575 10575 10577 10579 10580 10580 10581 10580 10579 10578 10576 10576 10577 10577 10578 10579 10579 10579 10577 10576 10577 10577 10575 10573 10573 10573 10572 10570 10569 10569 10568 10567 10567 10566 10565 10565 10565 10565 10565 10564 10564 10564 10565 10567 10568 10570 10571 10573 10575 10578 10580 10582 10583 10585 10588 10590 10591 10592 10594 10596
10524 10527 10529 10532 10533 10529 10529 10533 10533 10533 10536 10537 10535 10543 10561 10571 10569 10569 10571 10566 10562 10562 10560 10561 10563 10564 10565 10567 10567 10567 10569 10572 10572 10574 10575 10574 10574 10573 10569 10570 10571 10571 10572 10574 10575 10575 10572 10571 10572 10573 10572 10571 10571 10571 10569 10569 10568 10567 10567 10566 10566 10565 10565 10565 10564 10564 10565 10564 10564 10565 10566 10567 10569 10570 10571 10572 10574 10576 10578 10580 10581 10582 10583 10584 10585 10587 10589 10590
10512 10516 10518 10522 10522 10516 10518 10523 10520 10522 10526 10524 10526 10540 10554 10556 10554 10558 10559 10556 10554 10551 10550 10553 10555 10555 10556 10558 10559 10559 10561 10564 10565 10567 10568 10568 10570 10568 10562 10562 10565 10564 10565 10568 10571 10570 10568 10568 10567 10567 10568 10568 10568 10569 10566 10566 10567 10565 10565 10564 10564 10564 10564 10564 10563 10563 10563 10563 10563 10564 10564 10566 10568 10569 10571 10572 10574 10574 10574 10575 10575 10576 10578 10579 10581 10583 10584 10585
10497 10501 10504 10511 10510 10503 10506 10509 10507 10511 10513 10512 10523 10538 10542 10542 10544 10544 10544 10545 10544 10541 10540 10544 10546 10545 10546 10548 10550 10550 10552 10557 10558 10558 10560 10562 10564 10562 10556 10555 10557 10557 10559 10563 10565 10565 10564 10565 10562 10561 10563 10564 10565 10565 10563 10564 10565 10563 10562 10562 10562 10562 10562 10562 10562 10561 10561 10561 10561 10561 10562 10563 10565 10568 10569 10571 10572 10571 10570 10570 10571 10572 10574 10577 10578 10580 10580 10581
10479 10484 10490 10500 10500 10490 10490 10494 10493 10495 10497 10506 10523 10530 10529 10531 10532 10530 10531 10533 10532 10531 10532 10535 10535 10536 10539 10540 10541 10542 10544 10547 10549 10550 10553 10555 10557 10555 10550 10548 10549 10549 10552 10556 10558 10559 10559 10560 10559 10556 10558 10560 10560 10560 10561 10562 10561 10559 10559 10559 10559 10559 10559 10559 10559 10558 10559 10559 10559 10558 10557 10558 10561 10564 10566 10566 10566 10567 10567 10568 10569 10571 10572 10573 10575 10576 10576 10576
10462 10467 10475 10486 10485 10477 10477 10479 10479 10480 10486 10500 10514 10517 10517 10520 10520 10519 10520 10520 10520 10520 10523 10525 10524 10526 10531 10532 10532 10534 10534 10537 10540 10542 10545 10548 10549 10547 10542 10540 10541 10542 10545 10548 10550 10552 10553 10555 10555 10553 10553 10555 10555 10556 10558 10558 10557 10556 10556 10555 10556 10557 10557 10556 10556 10556 10557 10557 10556 10555 10551 10551 10557 10559 10559 10560 10562 10563 10564 10564 10564 10566 10568 10569 10570 10570 10571 10571
10447 10451 10461 10472 10467 10462 10464 10465 10466 10470 10476 10487 10499 10504 10507 10509 10509 10509 10508 10508 10509 10510 10512 10515 10515 10517 10521 10522 10524 10525 10524 10527 10531 10533 10537 10540 10540 10538 10534 10533 10534 10534 10537 10540 10540 10543 10546 10548 10551 10550 10548 10548 10550 10552 10554 10554 10553 10553 10552 10551 10552 10554 10554 10554 10554 10553 10554 10554 10554 10552 10546 10544 10551 10553 10551 10554 10557 10558 10559 10559 10559 10560 10562 10563 10564 10565 10566 10566
10430 10437 10449 10455 10447 10444 10449 10451 10452 10456 10463 10478 10489 10491 10492 10495 10497 10498 10497 10497 10498 10500 10502 10505 10507 10508 10510 10512 10513 10513 10514 10519 10522 10525 10530 10532 10530 10529 10526 10525 10526 10527 10529 10531 10532 10533 10537 10542 10546 10546 10543 10543 10545 10547 10547 10548 10549 10548 10547 10547 10548 10550 10551 10552 10551 10550 10551 10551 10549 10549 10543 10539 10544 10546 10545 10547 10548 10550 10552 10553 10553 10554 10555 10557 10558 10559 10560 10561
10412 10423 10432 10434 10431 10428 10429 10434 10438 10444 10456 10471 10476 10474 10476 10480 10484 10486 10487 10488 10489 10489 10491 10494 10498 10498 10499 10501 10501 10503 10506 10510 10514 10518 10520 10522 10523 10519 10516 10516 10517 10518 10519 10522 10523 10524 10527 10534 10539 10539 10539 10539 10540 10541 10541 10541 10542 10543 10544 10542 10544 10546 10545 10547 10549 10546 10548 10547 10544 10545 10539 10533 10537 10540 10538 10540 10541 10541 10544 10545 10546 10548 10549 10550 10552 10553 10554 10555
10397 10403 10408 10412 10414 10410 10410 10418 10428 10435 10446 10454 10456 10458 10463 10467 10473 10476 10477 10478 10478 10479 10480 10482 10486 10488 10488 10489 10490 10494 10498 10501 10506 10510 10509 10512 10515 10510 10506 10507 10507 10508 10509 10512 10514 10515 10519 10525 10530 10532 10535 10535 10535 10535 10533 10533 10535 10538 10539 10538 10540 10541 10540 10543 10544 10543 10545 10543 10539 10542 10534 10525 10531 10535 10531 10533 10535 10534 10535 10537 10538 10541 10542 10543 10544 10546 10546 10547
10383 10382 10384 10390 10392 10390 10397 10410 10416 10421 10430 10437 10441 10446 10449 10453 10462 10466 10466 10467 10468 10469 10469 10469 10473 10476 10476 10478 10481 10486 10490 10492 10495 10498 10499 10502 10505 10501 10498 10497 10497 10498 10499 10501 10504 10507 10510 10516 10520 10524 10528 10530 10530 10527 10524 10526 10529 10532 10533 10533 10534 10535 10536 10538 10538 10540 10542 10538 10536 10539 10528 10518 10524 10528 10525 10525 10527 10527 10528 10530 10531 10533 10534 10536 10537 10538 10539 10540
10367 10363 10363 10369 10371 10373 10386 10397 10401 10407 10417 10423 10426 10431 10435 10441 10449 10451 10451 10454 10456 10457 10457 10458 10461 10462 10463 10469 10473 10476 10479 10481 10482 10486 10491 10493 10493 10491 10489 10487 10487 10487 10487 10490 10493 10496 10501 10508 10512 10515 10519 10523 10523 10520 10517 10519 10524 10527 10527 10527 10527 10528 10530 10531 10534 10536 10535 10533 10536 10533 10522 10516 10516 10517 10519 10519 10517 10519 10521 10523 10525 10526 10527 10529 10530 10530 10532 10533
10347 10344 10346 10353 10355 10359 10371 10381 10387 10396 10404 10406 10409 10417 10422 10426 10430 10433 10436 10443 10445 10444 10444 10447 10449 10450 10455 10460 10460 10463 10467 10468 10469 10475 10481 10483 10482 10481 10480 10477 10475 10475 10476 10478 10481 10486 10492 10500 10504 10506 10509 10512 10513 10513 10512 10513 10517 10520 10520 10521 10521 10521 10522 10524 10528 10530 10526 10530 10535 10523 10515 10519 10511 10502 10508 10510 10509 10513 10516 10516 10518 10520 10521 10522 10523 10523 10524 10524
10329 10330 10335 10340 10338 10341 10354 10367 10375 10380 10382 10384 10391 10400 10406 10409 10415 10421 10427 10431 10431 10430 10431 10435 10439 10443 10446 10446 10444 10447 10452 10454 10459 10467 10470 10469 10468 10467 10469 10466 10463 10464 10465 10467 10471 10475 10481 10491 10496 10495 10498 10502 10502 10503 10505 10506 10510 10512 10513 10515 10514 10513 10515 10517 10520 10522 10519 10525 10528 10515 10512 10520 10509 10492 10491 10496 10502 10509 10509 10510 10513 10513 10513 10514 10514 10515 10515 10515
10313 10317 10323 10325 10321 10325 10340 10354 10357 10356 10359 10366 10373 10383 10394 10401 10407 10412 10414 10414 10416 10419 10419 10423 10433 10435 10431 10428 10427 10430 10438 10444 10451 10456 10455 10453 10452 10452 10454 10455 10454 10454 10455 10457 10462 10464 10470 10482 10487 10484 10487 10491 10492 10493 10495 10497 10501 10506 10507 10508 10506 10506 10508 10509 10513 10514 10512 10515 10518 10509 10510 10519 10512 10490 10475 10477 10492 10501 10501 10503 10506 10504 10504 10506 10506 10507 10507 10508
10296 10301 10308 10309 10307 10312 10323 10333 10335 10337 10345 10352 10357 10368 10383 10392 10398 10399 10397 10399 10406 10409 10407 10412 10423 10422 10413 10411 10411 10418 10431 10436 10437 10440 10439 10436 10437 10436 10438 10443 10444 10443 10446 10450 10452 10453 10459 10470 10475 10473 10474 10480 10482 10482 10484 10486 10490 10497 10501 10500 10499 10500 10501 10503 10504 10503 10501 10505 10507 10502 10509 10519 10508 10481 10467 10471 10483 10489 10490 10492 10494 10494 10497 10500 10500 10500 10500 10501
10277 10283 10290 10292 10292 10297 10306 10314 10318 10322 10329 10334 10343 10360 10370 10378 10385 10384 10380 10384 10391 10395 10396 10403 10408 10401 10395 10398 10403 10415 10426 10421 10417 10422 10419 10416 10420 10421 10424 10430 10432 10433 10439 10443 10442 10443 10446 10454 10462 10460 10460 10468 10472 10470 10473 10476 10477 10486 10497 10495 10491 10493 10495 10494 10493 10490 10491 10495 10495 10496 10506 10512 10495 10471 10469 10475 10474 10472 10477 10481 10482 10486 10489 10491 10492 10491 10491 10494
10259 10265 10271 10274 10276 10281 10290 10298 10302 10305 10312 10321 10335 10349 10354 10359 10365 10364 10364 10373 10380 10384 10386 10392 10393 10384 10380 10389 10401 10409 10410 10400 10398 10402 10400 10400 10407 10410 10412 10418 10421 10424 10431 10432 10430 10431 10433 10440 10446 10446 10447 10456 10459 10458 10462 10462 10463 10480 10494 10489 10482 10484 10484 10481 10482 10482 10482 10483 10486 10492 10497 10496 10483 10470 10470 10471 10465 10463 10467 10467 10469 10476 10480 10480 10483 10483 10484 10486